Regional Weather Roundup
Issued by NWS

Home | Current Version | Previous Version | Graphics & Text | Print | Product List | Glossary On
Versions: 1 2 3 4 5 6 7 8 9 10 11 12 13 14 15 16 17 18 19 20 21 22 23 24 25 26 27 28 29 30 31 32 33 34 35 36 37 38 39 40 41 42 43 44 45 46 47 48 49 50
000
ASUS43 KOAX 221902
RWRNE

WEATHER ROUNDUP FOR NEBRASKA
NATIONAL WEATHER SERVICE OMAHA NE
200 PM CDT SUN OCT 22 2017

NOTES: SATELLITE DATA IS BEING USED TO AUGMENT CLOUD COVER ABOVE
       12000 FEET.
       "FAIR" INDICATES FEW OR NO CLOUDS BELOW 12,000 FEET WITH NO
       SIGNIFICANT WEATHER AND/OR OBSTRUCTIONS TO VISIBILITY.


NEZ001>004-019>022-054>056-222000-
NEBRASKA PANHANDLE

CITY           SKY/WX    TMP DP  RH WIND       PRES   REMARKS
SCOTTSBLUFF    CLOUDY    64  29  26 W21G32    30.02F
ALLIANCE       SUNNY     66  27  23 MISG      29.99F
CHADRON        SUNNY     70  24  17 W21G33    29.95F
KIMBALL        CLOUDY    64  27  24 W17G23    30.09F
SIDNEY         SUNNY     67  26  21 W22G32    30.07F
$$

NEZ057>060-069>072-079>082-222000-
SOUTHWEST NEBRASKA

CITY           SKY/WX    TMP DP  RH WIND       PRES   REMARKS
NORTH PLATTE   SUNNY     67  26  21 SW15G26   30.05F
IMPERIAL       SUNNY     69  22  16 W20G25    30.07F
LEXINGTON      SUNNY     65  26  22 SW15G28   30.06F
MCCOOK         SUNNY     69  20  15 SW20G33   30.08F
OGALLALA       SUNNY     68  25  20 SW14G23   30.05F
$$

NEZ005>010-023>029-035>040-094-222000-
NORTH CENTRAL NEBRASKA

CITY           SKY/WX    TMP DP  RH WIND       PRES   REMARKS
VALENTINE      SUNNY     67  27  22 W21G31    29.95F
AINSWORTH      SUNNY     64  30  27 W18G24    29.97F
BROKEN BOW     SUNNY     65  29  25 W21G28    30.03F
O`NEILL        SUNNY     65  29  25 SW15G23   30.00F
ORD            SUNNY     65  26  23 SW17G26   30.02F
THEDFORD       SUNNY     67  29  25 SW17G29   30.01F
$$

NEZ041-046>049-061>064-073>077-083>087-222000-
SOUTH CENTRAL NEBRASKA

CITY           SKY/WX    TMP DP  RH WIND       PRES   REMARKS
GRAND ISLAND   SUNNY     68  24  19 W16       30.06F
AURORA         SUNNY     68  22  17 W13G18    30.06F
HASTINGS       SUNNY     66  23  19 W17G29    30.08F
HEBRON         SUNNY     69  23  17 SW14G20   30.09F
HOLDREGE       SUNNY     65  29  26 W20       30.08F
KEARNEY        SUNNY     66  23  19 W16       30.07F
YORK           SUNNY     68  25  19 SW12G21   30.06F
$$

NEZ011>018-030>034-042>045-222000-
NORTHEAST NEBRASKA

CITY           SKY/WX    TMP DP  RH WIND       PRES   REMARKS
NORFOLK        SUNNY     68  28  22 SW20      30.00F
ALBION         SUNNY     67  26  20 W12G24    30.03F
BLAIR          SUNNY     66  35  32 SW13      30.06F
COLUMBUS       SUNNY     68  28  22 SW15G25   30.04F
FREMONT        SUNNY     67  31  25 SW8       30.06F
TEKAMAH        SUNNY     68  26  20 SW10G17   30.04F
WAYNE          SUNNY     66  24  20 SW16G23   30.02F
$$

NEZ050>053-065>068-078-088>093-222000-
SOUTHEAST NEBRASKA

CITY           SKY/WX    TMP DP  RH WIND       PRES   REMARKS
LINCOLN        SUNNY     69  27  20 SW10      30.08F
OMAHA EPPLEY   MOSUNNY   66  31  27 VRB6      30.06F
BEATRICE       SUNNY     68  32  26 SW7       30.09F
FALLS CITY     SUNNY     67  33  28 VRB3G16   30.09F
NEBRASKA CITY  SUNNY     66  33  28 NW6       30.09F
PLATTSMOUTH    SUNNY     67  31  26 W7        30.07F
$$

NEZ044-045-051>053-067-222000-
OMAHA AREA

CITY           SKY/WX    TMP DP  RH WIND       PRES   REMARKS
OMAHA EPPLEY   MOSUNNY   66  31  27 VRB6      30.06F
BLAIR          SUNNY     66  35  32 SW13      30.06F
FREMONT        SUNNY     67  31  25 SW8       30.06F
MILLARD        SUNNY     67  35  30 SW6       30.07F
PLATTSMOUTH    SUNNY     67  31  26 W7        30.07F
WAHOO          FAIR      69  26  20 SW13      30.06F
$$




USA.gov is the U.S. government's official web portal to all federal, state and local government web resources and services.